Weather History for Pula, Croatia

Change the Weather History Date:

Thursday, November 1, 2012

  Actual Average Record
Temperature  
Mean Temperature 54 °F -  
Max Temperature 60 °F - - ()
Min Temperature 48 °F - - ()
Degree Days  
Heating Degree Days 11    
Growing Degree Days 4 (Base 50)    
Moisture  
Dew Point 54 °F    
Average Humidity 89    
Maximum Humidity 100    
Minimum Humidity 69    
Precipitation  
Precipitation 0.02 in - - ()
Sea Level Pressure  
Sea Level Pressure 29.38 in    
Wind  
Wind Speed 10 mph ()    
Max Wind Speed 20 mph    
Max Gust Speed 38 mph    
Visibility 6.7 miles    
Events Rain , Thunderstorm    
T = Trace of Precipitation, MM = Missing Value Source: Averaged Metar Reports

Daily Weather History Graph

Daily Weather History Graph

Search for Another Location

Airport:

Trip Planner

Search our weather history database for the weather conditions in past years. The results will help you decide how hot, cold, wet, or windy it might be!

Date:

Astronomy

Nov. 01, 2012 Rise Set
Actual Time 6:42 AM CET 4:52 PM CET
Civil Twilight 6:12 AM CET 5:22 PM CET
Nautical Twilight 5:37 AM CET 5:57 PM CET
Astronomical Twilight 5:03 AM CET 6:31 PM CET
Moon 6:30 PM CET (11/1) 9:06 AM CET (11/1)
Length of Visible Light 11h 10m
Length of Day
10h 09m
Waning Gibbous, 94% of the Moon is Illuminated
Nov 1
Waning Gibbous
Nov 7
Last Quarter
Nov 13
New
Nov 20
First Quarter
Nov 28
Full

Hourly Weather History & Observations

Time (CET) Temp. Dew Point Humidity Pressure Visibility Wind Dir Wind Speed Gust Speed Precip Events Conditions
12:00 AM 59.0 °F 55.4 °F 88% 29.36 in 6.2 mi ESE 19.6 mph 33.4 mph N/A Rain Light Rain
12:30 AM 59.0 °F 57.2 °F 94% 29.33 in 6.2 mi ESE 17.3 mph 33.4 mph N/A Rain Light Rain
1:00 AM 59 °F 57 °F 91% 29.32 in 6 mi ESE 15.7 mph - - Rain Light Rain
1:00 AM 59.0 °F 57.2 °F 94% 29.30 in 6.2 mi ESE 16.1 mph 38.0 mph N/A Rain Light Rain
1:30 AM 60.8 °F 59.0 °F 94% 29.30 in 4.3 mi ESE 16.1 mph 32.2 mph N/A Rain Rain
2:00 AM 59.0 °F 57.2 °F 94% 29.30 in 3.7 mi Variable 10.4 mph 25.3 mph N/A Rain Heavy Rain
2:30 AM 60.8 °F 60.8 °F 100% 29.27 in 4.3 mi SE 16.1 mph 38.0 mph N/A Rain Rain
3:00 AM 62.6 °F 60.8 °F 94% 29.24 in 6.2 mi SE 15.0 mph 27.6 mph N/A Rain Light Rain
3:30 AM 59.0 °F 57.2 °F 94% 29.24 in 6.2 mi ESE 11.5 mph - N/A   Mostly Cloudy
4:00 AM 60 °F 58 °F 92% 29.24 in 6 mi SE 8.9 mph - - Rain Light Rain
4:00 AM 59.0 °F 59.0 °F 100% 29.24 in 6.2 mi SE 8.1 mph - N/A   Mostly Cloudy
4:30 AM 62.6 °F 60.8 °F 94% 29.24 in 6.2 mi Variable 10.4 mph 24.2 mph N/A   Mostly Cloudy
5:00 AM 64 °F 61 °F 87% 29.24 in 6 mi SSE 11.2 mph - -   Partly Cloudy
5:00 AM 62.6 °F 60.8 °F 94% 29.24 in 6.2 mi Variable 9.2 mph 20.7 mph N/A   Mostly Cloudy
5:30 AM 62.6 °F 60.8 °F 94% 29.21 in 3.7 mi Variable 6.9 mph 19.6 mph N/A Rain Heavy Rain
6:00 AM 62 °F 59 °F 88% 29.20 in 6 mi SE 11.2 mph - - Rain , Thunderstorm Thunderstorms and Rain
6:00 AM 60.8 °F 59.0 °F 94% 29.18 in 6.2 mi Variable 11.5 mph 24.2 mph N/A Rain , Thunderstorm Thunderstorms and Rain
6:30 AM 60.8 °F 59.0 °F 94% 29.21 in 3.7 mi Variable 12.7 mph 25.3 mph N/A Rain , Thunderstorm Rain Showers
7:00 AM 58 °F 56 °F 90% 29.24 in 4 mi SW 11.2 mph - - Thunderstorm Light Thunderstorm
7:00 AM 57.2 °F 55.4 °F 94% 29.24 in 3.7 mi SW 10.4 mph - N/A Rain Rain
7:30 AM 59.0 °F 57.2 °F 94% 29.24 in 6.2 mi WSW 5.8 mph - N/A Rain Light Rain
8:00 AM 59.0 °F 57.2 °F 94% 29.24 in 6.2 mi WNW 4.6 mph - N/A   Partly Cloudy
8:30 AM 59.0 °F 57.2 °F 94% 29.27 in 6.2 mi Variable 1.2 mph - N/A   Partly Cloudy
9:00 AM 59.0 °F 57.2 °F 94% 29.27 in 6.2 mi Calm Calm - N/A   Scattered Clouds
9:30 AM 60.8 °F 59.0 °F 94% 29.30 in 6.2 mi SSW 6.9 mph - N/A   Mostly Cloudy
10:00 AM 59 °F 57 °F 91% 29.31 in 12 mi WSW 15.7 mph - - Rain Light Rain
10:00 AM 59.0 °F 57.2 °F 94% 29.30 in 6.2 mi WSW 16.1 mph 27.6 mph N/A   Mostly Cloudy
10:30 AM 57.2 °F 55.4 °F 94% 29.33 in 6.2 mi WSW 17.3 mph - N/A   Mostly Cloudy
11:00 AM 57.2 °F 53.6 °F 88% 29.33 in 6.2 mi WSW 16.1 mph - N/A   Mostly Cloudy
11:30 AM 57.2 °F 53.6 °F 88% 29.36 in 6.2 mi WSW 13.8 mph - N/A   Mostly Cloudy
12:00 PM 57.2 °F 51.8 °F 82% 29.39 in 6.2 mi WSW 16.1 mph - N/A   Scattered Clouds
12:30 PM 59.0 °F 53.6 °F 82% 29.39 in 6.2 mi WSW 17.3 mph - N/A   Partly Cloudy
1:00 PM 61 °F 54 °F 71% 29.41 in 16 mi WSW 13.4 mph - -   Partly Cloudy
1:00 PM 60.8 °F 53.6 °F 77% 29.39 in 6.2 mi WSW 13.8 mph - N/A   Partly Cloudy
1:30 PM 59.0 °F 51.8 °F 77% 29.42 in 6.2 mi WSW 13.8 mph - N/A   Scattered Clouds
2:00 PM 59.0 °F 51.8 °F 77% 29.42 in 6.2 mi WSW 12.7 mph - N/A   Scattered Clouds
2:30 PM 60.8 °F 51.8 °F 72% 29.42 in 6.2 mi WSW 11.5 mph - N/A   Partly Cloudy
3:00 PM 60.8 °F 51.8 °F 72% 29.44 in 6.2 mi WSW 11.5 mph - N/A   Partly Cloudy
3:30 PM 59.0 °F 51.8 °F 77% 29.44 in 6.2 mi West 9.2 mph - N/A   Partly Cloudy
4:00 PM 59 °F 52 °F 69% 29.47 in 19 mi WSW 8.9 mph - -   Scattered Clouds
4:00 PM 59.0 °F 51.8 °F 77% 29.47 in 6.2 mi WSW 8.1 mph - N/A   Partly Cloudy
4:30 PM 57.2 °F 50.0 °F 77% 29.47 in 6.2 mi WSW 8.1 mph - N/A   Partly Cloudy
5:00 PM 55.4 °F 50.0 °F 82% 29.47 in - SSW 4.6 mph - N/A   Clear
5:30 PM 53.6 °F 48.2 °F 82% 29.50 in - Variable 1.2 mph - N/A   Clear
6:00 PM 50.0 °F 48.2 °F 94% 29.50 in - East 4.6 mph - N/A   Clear
6:30 PM 50.0 °F 48.2 °F 94% 29.53 in - ENE 4.6 mph - N/A   Clear
7:00 PM 48 °F 45 °F 87% 29.56 in 11 mi NE 2.2 mph - -  
7:00 PM 48.2 °F 44.6 °F 87% 29.53 in - Variable 2.3 mph - N/A   Clear
7:30 PM 50.0 °F 48.2 °F 94% 29.53 in - Variable 3.5 mph - N/A   Clear
8:00 PM 51.8 °F 50.0 °F 94% 29.56 in - Variable 2.3 mph - N/A   Clear
8:30 PM 51.8 °F 50.0 °F 94% 29.56 in - Variable 3.5 mph - N/A   Clear
9:00 PM 51.8 °F 50.0 °F 94% 29.56 in - Variable 2.3 mph - N/A   Clear
9:30 PM 51.8 °F 50.0 °F 94% 29.59 in - Variable 1.2 mph - N/A   Clear
10:00 PM 51 °F 49 °F 91% 29.60 in 12 mi ENE 2.2 mph - -   Partly Cloudy
10:00 PM 50.0 °F 50.0 °F 100% 29.59 in - Variable 2.3 mph - N/A   Clear
10:30 PM 50.0 °F 48.2 °F 94% 29.59 in - Variable 3.5 mph - N/A   Clear
11:00 PM 51.8 °F 50.0 °F 94% 29.59 in - ENE 4.6 mph - N/A   Clear
11:30 PM 50.0 °F 50.0 °F 100% 29.59 in - Variable 3.5 mph - N/A   Clear